SCP
0 0 0 0 0 0 0 0 0 0 0 0 0 0 0 0 0 0 0 0 0 0 0 0 0 0 0 0 0 0 1 1 1 1 1 1 1 1 0 0 1 1 1 0 0 1 1 1 1
0 0 0 0 0 0 0 0 0 0 0 0 0 0 0 0 0 0 0 0 0 0 0 0 0 0 0 0 1 1 1 1 1 1 1 1 1 1 1 1 1 0 0 0 0 1 1 1 1
0 0 0 0 0 0 0 0 0 0 0 0 0 0 0 0 0 0 0 0 0 0 0 0 0 0 1 1 1 1 1 1 1 1 1 1 1 1 1 1 1 0 0 0 0 0 1 1 1
0 0 0 0 0 0 0 0 0 0 0 0 0 0 0 0 0 0 0 0 0 0 0 0 1 1 1 1 1 1 1 1 1 1 1 1 1 1 1 1 1 1 1 1 0 0 0 1 1
0 0 0 0 0 0 0 0 0 0 0 0 0 0 0 0 0 0 0 0 0 0 0 0 1 1 1 1 1 1 1 1 1 1 1 1 1 1 1 1 1 1 1 1 1 0 0 0 1
0 0 0 0 0 0 0 0 0 0 0 0 0 0 0 0 0 0 0 0 0 0 0 0 1 1 1 1 1 1 1 1 1 1 1 1 1 1 1 1 1 1 1 1 1 1 1 0 0
0 0 0 0 0 0 0 0 0 0 0 0 0 0 0 0 0 0 0 0 0 0 0 0 1 1 1 1 1 1 1 1 1 1 1 2 2 1 1 1 1 1 1 1 1 1 1 1 1
0 0 0 0 0 0 0 0 0 0 0 0 0 0 0 0 1 0 0 0 0 0 0 1 1 1 1 1 1 1 1 1 1 1 1 1 1 1 1 1 1 1 1 1 1 1 1 1 1
0 0 0 0 0 0 0 0 0 0 0 0 0 0 1 1 1 0 0 0 0 0 0 0 0 0 0 0 0 0 1 1 1 1 1 1 1 1 1 1 1 1 1 1 1 1 1 1 1
0 0 0 0 0 0 0 0 0 0 0 0 0 1 1 1 1 0 0 0 0 0 0 0 0 0 0 0 0 0 0 0 0 0 1 1 1 1 1 1 1 1 1 1 1 1 1 1 1
0 0 0 0 0 0 0 0 0 0 0 0 1 1 1 1 0 0 0 0 0 0 0 0 0 0 0 0 0 0 0 0 0 0 0 0 0 1 1 1 1 1 1 1 1 1 1 1 1
0 0 0 0 0 0 0 0 0 0 0 0 1 1 1 0 0 0 0 0 0 0 0 0 0 0 0 0 0 0 0 0 0 0 0 0 0 0 1 1 1 1 1 1 1 1 1 1 1
0 0 0 0 0 0 0 0 0 0 0 0 1 1 0 0 0 0 0 0 0 0 0 0 0 0 0 0 0 0 0 0 0 0 0 0 0 0 0 1 1 0 0 1 1 1 1 1 1
0 0 0 0 0 0 0 0 0 0 0 1 1 0 0 0 0 0 0 0 0 0 0 0 0 0 0 0 0 0 0 0 0 0 0 0 0 0 0 0 0 0 0 0 1 1 1 1 1
0 0 0 0 0 0 0 0 0 0 1 1 1 0 0 0 0 0 0 0 0 0 0 0 0 0 0 0 0 0 0 0 0 0 0 0 0 0 0 0 0 0 0 0 0 0 1 1 0
0 0 0 0 0 0 0 0 0 0 1 1 1 0 0 0 0 0 0 0 0 0 0 0 0 0 0 0 0 0 0 0 0 0 0 0 0 0 0 0 0 0 0 0 0 0 0 0 0
0 0 0 0 0 0 0 0 0 0 1 1 1 1 0 0 0 0 0 0 0 0 0 0 0 0 0 0 0 0 0 0 0 0 0 0 0 0 0 0 0 0 0 0 0 0 0 0 0
0 0 0 0 0 0 0 0 0 0 0 1 1 0 0 0 0 0 0 0 0 0 0 0 0 0 0 0 0 0 0 0 0 0 0 0 0 0 0 0 0 0 0 0 0 0 0 0 0
0 0 0 0 0 0 0 0 0 0 0 0 0 0 0 0 0 0 0 0 0 0 0 0 0 0 0 0 0 0 0 0 0 0 0 0 0 0 0 0 0 0 0 0 0 0 0 0 0
0 0 0 0 0 0 0 0 0 0 0 0 0 0 0 0 0 0 0 0 0 0 0 0 0 0 0 0 0 0 0 0 0 0 0 0 0 0 0 0 0 0 0 0 0 0 0 0 0
0 0 0 0 0 0 0 0 0 0 0 0 0 0 0 0 0 0 0 0 0 0 0 0 0 0 0 0 0 0 0 0 0 0 0 0 0 0 0 0 0 0 0 0 0 0 0 0 0
0 0 0 0 0 0 0 0 0 0 0 0 0 0 0 0 0 0 0 0 0 0 0 0 0 0 0 0 0 0 0 0 0 0 0 0 0 0 0 0 0 0 0 0 0 0 0 0 0
0 0 0 0 0 0 0 0 0 0 0 0 0 0 0 0 0 0 0 0 0 0 0 0 0 0 0 0 0 0 0 0 0 0 0 0 0 0 0 0 0 0 0 0 0 0 0 0 0
0 0 0 0 0 0 0 0 0 0 0 0 0 0 0 0 0 0 0 0 0 0 0 0 0 0 0 0 0 0 0 0 0 0 0 0 0 0 0 0 0 0 0 0 0 0 0 0 0
0 0 0 0 0 0 0 0 0 0 0 0 0 0 0 0 0 0 0 0 0 0 0 0 0 0 0 0 0 0 0 0 0 0 0 0 0 0 0 0 0 0 0 0 0 0 0 0 0
0 0 0 0 0 0 0 0 0 0 0 0 0 0 0 0 0 0 0 0 0 0 0 0 0 0 0 0 0 0 0 0 0 0 0 0 0 0 0 0 0 0 0 0 0 0 0 0 0
0 0 0 0 0 0 0 0 0 0 0 0 0 0 0 0 0 0 0 0 0 0 0 0 0 0 0 0 0 0 0 0 0 0 0 0 0 0 0 0 0 0 0 0 0 0 0 0 0
0 0 0 0 0 0 0 0 0 0 0 0 -0 -0 0 0 0 0 0 0 0 0 0 0 0 0 0 0 0 0 0 0 0 0 0 0 0 0 0 0 0 0 0 0 0 0 0 0 0
0 0 0 0 0 0 0 0 0 0 -0 -0 -0 -0 -0 0 0 0 0 0 0 0 0 0 0 0 0 0 0 0 0 0 0 0 0 0 0 0 0 0 0 0 0 0 0 0 0 0 0
0 0 0 0 0 0 0 0 0 0 -0 -0 -0 -0 -0 0 0 0 0 0 0 0 0 0 0 0 0 0 0 0 0 0 0 0 0 0 0 0 0 0 0 0 0 0 0 0 0 0 0
Wind_Speed
6 5 3 3 3 2 2 3 1 1 2 2 4 6 6 4 3 2 2 0 2 3 2 3 4 4 3 3 3 3 3 3 3 4 4 4 5 5 6 5 5 5 4 4 3 2 2 2 2
5 4 3 3 3 1 2 2 1 1 3 3 4 4 5 4 2 2 2 0 2 3 1 2 3 3 3 3 3 3 4 4 4 5 5 5 6 6 6 6 6 6 5 5 4 4 3 2 1
6 3 3 2 1 2 2 1 1 3 3 2 3 4 3 2 1 1 1 2 3 2 1 0 1 1 1 2 2 3 4 5 6 6 6 7 7 7 7 7 7 7 6 6 5 5 4 3 2
4 3 3 1 2 2 2 1 2 4 3 4 4 4 2 2 0 1 2 3 3 2 1 1 1 2 2 2 3 3 4 5 6 6 7 7 8 8 8 8 8 7 7 7 6 6 5 4 4
3 3 2 1 2 2 1 1 2 2 2 2 3 4 2 2 1 3 3 3 3 2 2 2 3 3 3 4 4 4 5 5 6 6 7 7 7 8 8 8 8 8 8 8 7 7 6 6 5
3 3 2 2 3 2 1 0 2 3 3 3 4 4 1 0 2 2 3 3 2 2 2 3 4 4 4 4 5 5 5 5 6 7 7 8 8 8 8 8 8 9 8 8 8 7 7 7 6
3 3 2 2 2 2 1 1 3 4 3 3 5 5 1 1 2 3 3 3 3 2 2 2 3 4 6 6 6 6 6 6 6 7 7 7 7 8 8 8 9 9 9 9 8 8 8 7 7
3 3 1 1 2 2 1 2 1 3 3 3 5 6 4 4 4 4 4 3 2 2 2 2 3 3 3 4 6 7 7 7 7 7 7 7 7 7 8 8 8 8 9 9 9 8 8 8 7
3 3 1 3 3 2 1 2 1 2 4 2 2 3 4 7 7 5 3 2 1 1 2 2 3 3 3 3 4 6 7 7 7 6 7 6 3 3 4 6 8 8 8 8 8 8 8 7 6
3 3 4 3 3 2 1 2 3 3 3 2 3 3 6 7 6 5 4 3 1 0 1 2 2 3 3 3 3 3 3 4 4 3 4 3 2 3 4 6 8 8 7 6 6 6 6 4 1
3 4 2 1 2 2 2 2 3 6 4 6 7 8 7 6 6 5 4 3 2 1 0 1 1 2 3 2 2 2 2 2 3 4 3 2 2 2 2 2 3 4 4 2 2 2 1 1 1
2 1 1 1 1 1 3 3 3 5 6 6 9 10 8 8 7 6 5 4 2 1 0 1 1 2 2 2 2 2 2 2 2 3 3 2 2 2 2 1 2 2 1 1 1 1 1 1 2
2 1 1 1 1 1 1 2 2 4 2 6 8 8 8 8 6 4 3 3 3 2 1 0 1 1 2 2 2 2 2 2 2 2 3 2 1 2 2 2 2 2 1 1 1 1 1 1 2
2 1 1 1 1 1 2 1 1 4 4 7 9 8 7 7 7 4 4 4 3 2 2 0 1 1 2 2 2 2 2 2 2 3 3 3 2 2 2 2 2 2 1 1 1 1 2 2 2
2 2 3 2 2 1 2 2 5 4 7 8 8 7 6 6 6 6 5 5 4 3 1 1 0 1 2 2 2 2 2 2 2 3 3 3 3 2 2 2 2 2 2 1 1 1 1 1 2
3 2 2 3 3 2 4 6 5 5 8 8 7 6 6 5 5 5 5 4 3 2 1 1 1 2 2 2 2 2 2 2 2 2 3 4 3 3 2 2 2 3 2 1 0 0 0 1 1
2 1 4 4 3 3 4 6 4 5 9 8 7 6 6 5 4 4 5 4 3 3 2 0 1 1 2 2 2 2 2 2 2 2 3 3 4 3 2 2 2 3 2 1 1 0 0 0 1
5 4 4 5 3 5 4 8 5 4 8 8 6 6 6 6 6 5 4 4 3 2 1 1 1 1 2 2 2 2 3 3 3 3 3 4 3 4 3 2 3 3 2 2 1 1 0 0 1
5 4 5 5 4 6 7 9 7 5 6 7 7 7 7 7 4 4 4 4 3 2 1 1 0 1 1 1 1 2 2 2 3 3 4 4 4 4 3 2 3 3 2 2 2 1 1 1 1
4 4 5 4 2 5 4 7 6 6 8 9 10 9 9 6 4 5 4 4 3 3 2 2 2 1 1 0 0 0 1 2 2 2 3 4 4 4 3 3 2 2 2 3 3 2 1 1 1
5 6 5 3 2 1 1 7 5 3 4 5 6 6 7 9 9 7 6 5 4 4 4 3 3 2 1 0 1 1 2 2 3 3 3 4 4 3 3 3 2 2 2 2 2 1 1 1 1
5 6 4 2 2 2 0 4 7 3 3 5 7 7 8 8 7 7 7 6 6 6 4 4 3 3 2 0 1 1 1 1 2 2 3 4 4 4 3 3 3 2 2 2 2 2 1 1 0
4 2 3 2 3 1 1 2 9 2 4 8 8 8 8 8 9 9 8 8 6 5 4 4 3 3 2 1 1 1 0 1 2 2 3 4 4 4 4 3 3 2 2 2 2 2 1 0 0
5 6 6 5 4 2 3 4 8 5 7 6 6 8 8 8 8 7 6 5 5 4 4 4 4 4 3 2 1 2 2 2 2 2 3 3 3 3 4 3 3 2 2 2 2 1 1 1 0
4 6 4 4 4 5 2 3 10 6 7 7 7 9 9 8 8 7 7 7 6 6 6 5 5 5 4 3 3 3 3 2 2 2 2 2 2 2 4 3 3 2 2 2 1 2 2 1 1
4 7 6 4 4 5 2 6 9 6 5 4 5 6 7 8 8 9 9 8 7 7 6 5 5 5 4 4 3 3 3 2 2 2 2 2 2 3 3 3 2 2 2 2 2 1 1 1 1
6 3 5 6 2 2 6 7 9 2 1 1 3 5 8 9 9 9 8 8 7 7 7 7 6 6 5 4 4 3 3 3 3 2 2 2 2 2 2 2 2 3 3 2 2 1 2 2 1
4 8 6 5 3 3 7 6 6 6 6 4 5 7 8 7 8 8 8 8 7 7 6 5 6 6 5 4 4 3 3 3 3 2 2 2 2 2 2 2 2 3 3 2 2 1 2 2 2
4 4 5 5 5 5 3 9 7 7 8 8 9 8 8 9 9 9 8 7 7 6 5 5 5 5 4 4 3 3 3 2 2 2 2 2 2 2 2 2 2 2 2 2 2 2 1 2 3
5 7 8 5 4 5 3 11 7 6 7 7 8 7 7 8 8 8 7 6 6 6 6 6 5 5 5 4 3 3 3 2 2 2 2 2 2 2 2 1 2 2 2 2 2 2 2 2 3
Wind_Direction
130 105 84 55 55 47 296 285 283 10 53 44 48 67 79 68 64 98 302 71 145 150 175 192 186 181 182 181 189 203 206 208 210 211 209 206 203 198 195 193 190 190 186 187 184 177 165 144 130
120 103 63 54 82 103 275 292 347 90 137 130 60 62 71 69 56 67 349 7 125 136 144 201 200 196 199 206 217 230 236 239 243 243 238 235 232 225 219 214 210 209 206 204 200 197 198 186 168
122 77 75 62 106 192 234 270 127 80 101 100 78 56 78 74 46 53 304 117 105 104 91 289 239 237 248 248 255 262 264 260 257 257 255 251 247 242 235 229 225 223 220 217 213 209 213 214 212
112 73 65 73 242 233 226 233 138 124 85 70 101 78 63 31 38 145 107 108 100 78 57 330 308 314 307 295 285 284 285 287 284 280 273 264 255 250 246 240 235 232 229 228 223 222 220 225 226
76 93 97 230 259 267 242 222 165 123 83 81 100 101 68 11 63 100 105 105 103 73 28 1 353 346 333 331 324 312 306 302 296 292 290 284 275 267 259 253 246 242 238 236 231 230 230 232 233
81 83 107 227 254 290 300 137 128 116 112 119 114 116 130 50 104 107 104 101 99 82 36 10 359 1 351 342 335 326 318 315 312 307 301 297 293 286 276 268 258 251 247 243 238 231 233 237 237
124 123 179 214 258 285 197 139 139 132 135 157 139 121 155 198 170 121 102 89 73 57 39 7 358 1 1 354 343 336 328 323 319 317 316 310 300 294 291 285 275 265 255 249 245 241 238 240 242
140 122 141 217 236 240 150 116 117 130 136 130 135 143 183 192 146 108 89 71 51 33 16 358 359 0 354 346 345 347 343 334 327 324 318 313 307 304 303 298 289 283 274 261 251 245 244 244 246
106 88 196 213 201 239 149 122 87 83 110 98 131 162 165 135 125 112 95 57 35 26 11 8 2 354 347 337 357 358 350 348 347 340 331 331 323 307 298 297 294 283 278 272 263 252 246 247 248
112 145 217 214 193 192 164 155 159 118 110 107 83 84 112 125 135 143 154 166 171 329 350 13 2 354 357 356 2 348 346 343 341 334 333 329 323 310 308 309 306 299 289 280 273 265 258 249 241
147 182 215 239 235 177 157 170 157 140 189 193 175 160 144 143 152 163 176 181 188 190 53 17 355 355 3 354 347 344 338 338 338 338 333 332 336 329 329 321 318 312 304 305 297 284 252 191 192
147 209 194 226 232 162 175 168 163 190 216 190 169 157 155 163 174 179 182 180 161 135 131 357 355 2 359 357 346 346 345 345 349 342 343 344 336 332 327 316 306 302 299 294 286 255 231 200 202
164 199 225 226 250 231 165 190 208 233 212 139 141 150 165 173 180 185 176 165 156 162 206 311 355 7 357 0 352 10 353 351 350 349 350 355 340 327 326 317 313 299 284 266 261 251 235 215 207
167 171 256 271 255 274 156 235 196 243 148 140 152 168 178 179 177 167 164 166 174 185 206 270 10 13 11 14 6 359 352 353 2 357 349 353 343 328 330 326 325 316 294 269 255 244 229 221 206
75 40 341 254 203 205 123 278 233 210 152 160 172 178 181 185 179 179 179 176 183 191 204 235 187 30 21 16 6 7 359 7 7 353 353 358 355 342 341 331 332 324 312 309 287 274 228 222 215
67 54 308 270 176 168 152 255 253 179 165 180 185 184 185 193 193 190 179 175 178 175 188 276 49 42 18 16 4 3 10 14 2 351 355 359 357 357 357 351 339 332 336 352 346 51 233 231 218
45 236 257 280 188 155 178 247 277 175 177 190 192 192 192 194 197 192 182 177 173 173 178 156 27 15 6 11 14 16 16 15 2 1 0 355 359 4 11 4 348 347 352 356 334 63 162 258 259
202 217 243 249 208 165 202 250 267 188 189 198 197 196 198 200 205 191 179 170 160 157 162 134 10 352 358 6 13 12 15 7 6 4 358 358 359 5 10 7 3 6 8 1 0 355 49 285 277
172 195 240 250 195 177 217 248 261 201 198 205 203 201 207 210 204 183 170 156 149 158 170 196 260 318 0 15 11 6 351 339 348 356 1 3 2 4 13 13 9 14 19 4 2 7 26 3 339
176 208 246 275 174 184 240 265 265 209 205 204 201 203 202 194 184 184 174 169 180 190 202 223 241 269 293 288 271 261 297 309 306 323 352 5 3 1 13 18 9 9 16 18 18 25 28 353 18
202 205 221 223 82 63 335 306 289 257 215 202 199 198 194 191 191 189 184 191 196 208 212 216 229 245 262 333 44 27 19 1 356 351 347 344 350 1 11 12 10 9 23 12 2 16 58 13 350
227 228 199 155 112 284 90 284 290 283 246 218 208 196 196 195 187 187 188 196 207 216 215 221 228 241 250 179 96 89 74 336 301 306 315 328 346 359 8 12 12 12 17 12 347 24 24 90 20
199 71 103 94 125 359 331 204 284 298 248 239 221 208 201 194 188 191 195 200 208 210 210 220 230 246 246 216 182 151 200 254 291 312 332 342 345 356 2 5 8 9 8 9 12 14 23 61 145
123 72 57 51 67 312 239 180 277 238 224 236 216 206 198 191 189 195 197 198 213 216 217 219 226 247 247 236 225 215 234 261 308 326 336 337 335 339 351 357 1 358 358 360 6 15 23 17 49
93 88 32 355 4 257 265 210 251 257 241 228 214 204 193 184 182 188 193 202 211 216 219 218 222 243 249 242 242 237 240 242 252 272 292 314 326 326 331 347 347 347 343 350 7 21 15 17 36
153 137 156 206 235 283 300 239 256 262 270 237 209 187 179 183 186 194 199 202 209 216 219 217 222 238 245 240 244 242 241 232 245 253 257 275 276 286 309 331 337 344 353 7 17 14 351 10 3
132 156 155 130 174 284 285 285 299 249 254 161 160 166 189 194 194 199 201 203 209 216 219 215 220 234 241 236 239 244 241 236 247 260 265 270 277 288 320 337 347 352 1 6 15 8 352 351 334
132 139 105 115 153 272 296 283 260 253 235 215 200 201 209 203 200 202 202 206 211 218 221 218 220 229 237 234 234 234 234 239 242 251 275 283 292 310 335 349 356 360 3 7 13 353 341 355 336
117 104 105 109 147 159 275 276 235 234 223 213 216 213 207 201 202 202 204 206 210 217 218 220 225 228 237 236 232 239 247 244 239 248 267 278 295 315 330 337 345 350 355 356 359 339 336 341 332
177 168 148 152 206 174 189 269 269 255 242 220 222 221 213 207 204 201 200 198 203 214 218 220 223 226 233 229 223 231 239 233 241 256 265 266 290 304 307 326 339 338 340 339 336 324 329 323 319